Tracking 20623 objects as of 3-Apr-2020
HD Live streaming from Space Station
objects crossing your sky now

ARIANE 2 DEB

Track ARIANE 2 DEB now!


NORAD ID: 28566
Int'l Code: 1989-006AH
Perigee: 664.5 km
Apogee: 35,379.3 km
Inclination: 7.1 °
Period: 631.9 minutes
Semi major axis: 24392 km
RCS: 0.1259 m2 (medium)
Launch date: January 27, 1989
Source: France (FR)
Launch site: FRENCH GUIANA (FRGUI)

Note: This is SATELLITE DEBRIS
aabbcc
Your satellite tracking list
Your tracking list is empty




NASA's NSSDC Master Catalog

Two Line Element Set (TLE):
1 28566U 89006AH  20093.53069113 -.00001424 +00000-0 -26767-1 0  9994
2 28566 007.1288 320.8751 7115765 358.7810 000.2831 02.27881290060734
Source of the keplerian elements: AFSPC